FW1340 Weather Reports


Display with metric or nautical units.
time (UTC)temp
F
wind
direction
speed
MPH
gust
MPH
rain 1hr
in
rain 24hr
in
rain mn
in
humidity
%
barometer
mb
20260903233100 80 250 0.0 0.0 0.00 0.00 0.00 55 1011.3
20260903231607 79 273 0.0 0.0 0.00 0.00 0.00 55 1011.4
20260903230058 79 284 0.0 0.0 0.00 0.00 0.00 56 1011.6
20260903224555 80 244 0.0 0.0 0.00 0.00 0.00 55 1011.7
20260903223052 79 259 0.0 0.0 0.00 0.00 0.00 56 1011.8
20260903221550 78 247 0.0 0.0 0.00 0.00 0.00 57 1012.2
20260903220048 79 282 0.0 0.0 0.00 0.00 0.00 56 1012.4
20260903214546 79 308 0.0 0.0 0.00 0.00 0.00 55 1012.5
20260903213051 79 260 0.0 0.0 0.00 0.00 0.00 55 1012.5
20260903211544 78 309 0.0 0.0 0.00 0.00 0.00 55 1012.6
20260903210042 77 321 0.0 0.0 0.00 0.00 0.00 57 1012.8
20260903204542 78 320 0.0 0.0 0.00 0.00 0.00 56 1012.9
20260903203039 77 15 0.0 0.0 0.00 0.00 0.00 59 1013.0
20260903201535 76 261 0.0 0.0 0.00 0.00 0.00 59 1013.0
20260903200034 77 270 0.0 0.0 0.00 0.00 0.00 56 1013.2
20260903194530 77 173 0.0 0.0 0.00 0.00 0.00 56 1013.4
20260903193028 76 226 0.0 0.0 0.00 0.00 0.00 57 1013.7
20260903191535 75 242 0.0 0.0 0.00 0.00 0.00 59 1013.9
20260903190020 74 257 0.0 0.0 0.00 0.00 0.00 61 1014.1
20260903184518 74 257 0.0 0.0 0.00 0.00 0.00 63 1014.3
20260903183024 74 254 0.0 0.0 0.00 0.00 0.00 62 1014.4
20260903181512 73 250 0.0 0.0 0.00 0.00 0.00 64 1014.5
20260903180114 72 264 0.0 0.0 0.00 0.00 0.00 65 1014.6
20260903174509 72 209 0.0 0.0 0.00 0.00 0.00 65 1014.6
20260903173005 71 215 0.0 0.0 0.00 0.00 0.00 66 1014.7
20260903171502 71 243 0.0 0.0 0.00 0.00 0.00 68 1014.8
20260903170000 70 240 0.0 0.0 0.00 0.00 0.00 68 1014.9
20260903164557 70 226 0.0 0.0 0.00 0.00 0.00 70 1015.1
20260903163121 69 234 0.0 0.0 0.00 0.00 0.00 71 1015.0
20260903161549 68 229 0.0 0.0 0.00 0.00 0.00 74 1015.2
20260903160048 67 178 0.0 0.0 0.00 0.00 0.00 76 1015.2
20260903154541 65 108 0.0 0.0 0.00 0.00 0.00 79 1015.3
20260903153035 64 169 0.0 0.0 0.00 0.00 0.00 82 1015.4
20260903151533 62 128 0.0 0.0 0.00 0.00 0.00 87 1015.6
20260903150028 60 107 0.0 0.0 0.00 0.00 0.00 91 1015.5
20260903144525 58 105 0.0 0.0 0.00 0.00 0.00 94 1015.5
20260903143020 56 134 0.0 0.0 0.00 0.00 0.00 94 1015.4
20260903141517 54 128 0.0 0.0 0.00 0.00 0.00 94 1015.4
20260903140016 54 117 0.0 0.0 0.00 0.00 0.00 93 1015.4
20260903134512 54 125 0.0 0.0 0.00 0.00 0.00 93 1015.2
20260903133013 54 89 0.0 0.0 0.00 0.00 0.00 93 1015.2
20260903131510 54 89 0.0 0.0 0.00 0.00 0.00 93 1015.1
20260903130008 54 92 0.0 0.0 0.00 0.00 0.00 93 1015.2
20260903124507 54 88 0.0 0.0 0.00 0.00 0.00 92 1015.2
20260903123005 54 92 0.0 0.0 0.00 0.00 0.00 93 1015.2
20260903121509 54 94 0.0 0.0 0.00 0.00 0.00 92 1015.3
20260903120002 54 105 0.0 0.0 0.00 0.00 0.00 92 1015.4
20260903114607 54 88 0.0 0.0 0.00 0.00 0.00 91 1015.6
20260903113101 55 106 0.0 0.0 0.00 0.00 0.00 90 1015.6
20260903111556 56 237 0.0 0.0 0.00 0.00 0.00 92 1015.6
20260903104554 56 81 0.0 0.0 0.00 0.00 0.00 92 1015.6
20260903103054 55 81 0.0 0.0 0.00 0.00 0.00 90 1015.7
20260903101551 55 130 0.0 0.0 0.00 0.00 0.00 88 1015.8
20260903100049 56 129 0.0 0.0 0.00 0.00 0.00 87 1015.8
20260903094546 57 184 0.0 0.0 0.00 0.00 0.00 86 1015.7
20260903093043 58 229 0.0 0.0 0.00 0.00 0.00 87 1015.7
20260903091539 58 229 0.0 0.0 0.00 0.00 0.00 88 1016.0
20260903090038 58 219 0.0 0.0 0.00 0.00 0.00 86 1016.2
20260903084535 59 242 0.0 0.0 0.00 0.00 0.00 86 1016.1
20260903083042 59 225 0.0 0.0 0.00 0.00 0.00 85 1016.1
20260903081532 60 257 0.0 0.0 0.00 0.00 0.00 85 1016.1
20260903080030 60 252 0.0 0.0 0.00 0.00 0.00 84 1016.1
20260903074528 60 257 0.0 0.0 0.00 0.00 0.00 83 1016.1
20260903073026 61 244 0.0 0.0 0.00 0.00 0.00 82 1016.0
20260903071527 61 269 0.0 0.0 0.00 0.00 0.00 82 1016.0
20260903070022 61 251 0.0 0.0 0.00 0.00 0.00 81 1016.0
20260903064521 62 273 0.0 0.0 0.00 0.00 0.00 80 1015.9
20260903063021 62 257 0.0 0.0 0.00 0.00 0.00 77 1015.9
20260903061533 63 263 0.0 0.0 0.00 0.00 0.00 76 1016.0
20260903060020 63 262 0.0 0.0 0.00 0.00 0.00 74 1016.0
20260903054520 64 267 0.0 0.0 0.00 0.00 0.00 73 1015.9
20260903053018 64 259 0.0 0.0 0.00 0.00 0.00 72 1016.0
20260903051517 65 263 0.0 0.0 0.00 0.00 0.00 70 1015.9
20260903050017 66 259 0.0 0.0 0.00 0.00 0.00 69 1015.9
20260903044517 66 274 0.0 0.0 0.00 0.00 0.00 67 1015.8
20260903043018 67 252 0.0 0.0 0.00 0.00 0.00 67 1015.7
20260903041528 67 279 0.0 0.0 0.00 0.00 0.00 65 1015.6
20260903040015 68 281 0.0 0.0 0.00 0.00 0.00 65 1015.5
20260903034514 68 286 0.0 0.0 0.00 0.00 0.00 64 1015.3
20260903033017 69 267 0.0 0.0 0.00 0.00 0.00 61 1015.1
20260903031522 70 314 0.0 0.0 0.00 0.00 0.00 59 1015.0
20260903030016 70 266 0.0 0.0 0.00 0.00 0.00 57 1014.9
20260903024512 71 261 0.0 0.0 0.00 0.00 0.00 56 1014.8
20260903023010 72 289 0.0 0.0 0.00 0.00 0.00 55 1014.9
20260903021509 73 265 0.0 0.0 0.00 0.00 0.00 55 1014.9
20260903020029 74 263 0.0 0.0 0.00 0.00 0.00 55 1014.9
20260903014508 75 268 0.0 0.0 0.00 0.00 0.00 54 1014.9
20260903013006 76 244 0.0 0.0 0.00 0.00 0.00 54 1015.0
20260903011506 77 273 0.0 0.0 0.00 0.00 0.00 54 1015.0
20260903010009 77 250 0.0 0.0 0.00 0.00 0.00 54 1015.0
20260903004507 78 287 0.0 0.0 0.00 0.00 0.00 53 1015.0
20260903003004 78 257 0.0 0.0 0.00 0.00 0.00 52 1015.0
20260903001504 79 271 0.0 0.0 0.00 0.00 0.00 52 1015.0
20260903000002 79 238 0.0 0.0 0.00 0.00 0.00 51 1015.2
20260902234609 79 254 0.0 0.0 0.00 0.00 0.00 50 1015.3